Regional Weather Roundup
Issued by NWS Charleston, SC

Current Version | Previous Version | Text Only | Print | Product List | Glossary On
Versions: 1 2 3 4 5 6 7 8 9 10 11 12 13 14 15 16 17 18 19 20 21 22 23 24 25 26 27 28 29 30 31 32 33 34 35 36 37 38 39 40 41 42 43 44 45 46 47 48 49 50
000 ASUS42 KCHS 210927 RWRCHS REGIONAL WEATHER ROUNDUP NATIONAL WEATHER SERVICE CHARLESTON SC 500 AM EDT MON AUG 21 2017 NOTE: "FAIR" INDICATES FEW OR NO CLOUDS BELOW 12,000 FEET WITH NO SIGNIFICANT WEATHER AND/OR OBSTRUCTIONS TO VISIBILITY. NOT ALL STATIONS ARE QUALITY CONTROLLED. USE DATA WITH CAUTION... ESPECIALLY DEWPOINT OBSERVATIONS. SCZ027-030-031-034>040-042>050-211000- ...SOUTHEAST SOUTH CAROLINA... CITY SKY/WX TMP DP RH WIND PRES REMARKS N CHARLESTON PTCLDY 78 77 96 CALM 30.12S WATERFRONT PRK N/A 83 78 84 CALM 29.95F HX 93 JOHNS ISLAND FAIR 79 77 94 CALM 30.13R PINOPOLIS N/A 79 79 100 CALM 30.05F MONCKS CORNER FAIR 75 73 94 CALM 30.13R SUMMERVILLE FAIR 75 73 94 CALM 30.14R BEAUFORT MCAS CLEAR 80 79 96 CALM 30.12S BEAUFORT ARPT FAIR 79 77 94 CALM 30.11S HILTON HEAD IS CLEAR 79 77 94 CALM 30.12S WALTERBORO MOSUNNY 73 73 100 CALM 30.14R ALLENDALE NOT AVBL ...SOUTHERN MIDLANDS AND PEE DEE... CITY SKY/WX TMP DP RH WIND PRES REMARKS GEORGETOWN FAIR 75 73 94 CALM 30.15R KINGSTREE FAIR 73 72 94 CALM 30.14S FOG ORANGEBURG CLEAR 75 73 93 CALM 30.15R BARNWELL FAIR 75 75 100 CALM 30.14S AIKEN FAIR 72 72 100 CALM 30.19R THUNDER MANNING FAIR 73 70 88 N7 30.14S COLUMBIA PTCLDY 77 73 87 CALM 30.14S SUMTER CLEAR 76 73 92 CALM 30.13R FLORENCE MOCLDY 76 75 97 NE3 30.16R MYRTLE BEACH NOT AVBL N MYRTLE BEACH CLOUDY 77 76 96 NE5 30.13S $$ GAZ063-065-086>088-099>101-113>116-118-119-134>141-150-211000- ...SOUTHEAST GEORGIA... CITY SKY/WX TMP DP RH WIND PRES REMARKS SAVANNAH ARPT CLEAR 79 77 94 NW6 30.12R HUNTER AAF CLEAR 77 76 94 NW3 30.08S FORT STEWART CLEAR 75 73 95 CALM 30.09R STATESBORO PTCLDY 77 77 100 CALM 30.13R SYLVANIA MOSUNNY 76 76 100 CALM 30.14R FOG CLAXTON FAIR 75 74 97 CALM 30.12S ...CSRA...CENTRAL AND FAR SOUTHEAST GEORGIA... CITY SKY/WX TMP DP RH WIND PRES REMARKS THOMSON CLEAR 73 72 96 S3 30.19S AUGUSTA-BUSH MOCLDY 76 74 93 CALM 30.13S FOG AUGUSTA-DANIEL CLEAR 79 74 84 SE3 30.15S SWAINSBORO FAIR 75 75 100 CALM 30.14S VIDALIA PTCLDY 75 73 94 CALM 30.13R EASTMAN FAIR 73 73 99 CALM 30.14S FOG HAZLEHURST FAIR 76 72 87 CALM 30.11S ALMA CLEAR 72 71 97 N3 30.10S WAYCROSS CLEAR 73 70 91 CALM 30.10S JESUP FAIR 73 70 88 CALM 30.11S BAXLEY FAIR 72 70 94 CALM 30.11S BRUNSWICK FOG 75 73 94 CALM 30.10S VSB 1/2 SAINT SIMONS PTCLDY 81 78 91 CALM 30.09S $$ SCZ027-028-034-036>038-045-046-048>050-GAZ119-141-211000- ...LAKE AND SUPPLEMENTAL COASTAL OBSERVATIONS... STATION/POSITION TIME TEMP WIND PRES WAVE SWELL AIR SEA DIR/SP/G HT/PER HT/PER/DIR (UTC) (F) (DEG/KT/KT) (MB) (FT/S) (FT/S/D) WINYAH BAY 0845 78 20/ 2 1020.0S LAKE MURRAY 0850 80 310/ 2/ 3 1019.6F ACE BASIN NERRS 0845 78 CALM 1020.0S FORT PULASKI 0900 83 87 270/ 2/ 2 1019.8 SAPELO ISLAND 0900 80 CALM 1019.0 $$ ANZ835-935-AMZ111-154-330-350-352-354-370-450-454-472-211000- ...C-MAN AND BUOY OBSERVATIONS... STATION/POSITION TIME TEMP WIND PRES WAVE SWELL AIR SEA DIR/SP/G HT/PER HT/PER/DIR (UTC) (F) (DEG/KT/KT) (MB) (FT/S) (FT/S/D) BUOY 41004 0910 83 85 320/ 2/ 4 1019.5 BUOY 41008 0850 83 85 180/ 6/ 8 1018.9F 3/ 8 2/120/ 8 FOLLY BEACH CMAN 0900 82 330/ 2/ 2 1020.4S CAPERS NEARSHORE 0908 82 86 210/ 2/ 4 1019.8S FRIPP NEARSHORE 0808 84 210/ 6/ 8 1019.3F STATION/POSITION TIME TEMP WIND PRES WAVE SWELL AIR SEA DIR/SP/G HT/PER HT/PER/DIR (UTC) (F) (DEG/KT/KT) (MB) (FT/S) (FT/S/D) 5E ST. MARYS GA 0900 84 N/A 2/ 8 FRYING PAN BUOY 0910 83 84 190/ 4/ 4 1020.3 BUOY 41025 0850 82 85 30/ 8/ 10 1021.1R 2/ 8 2/130/ 8 CAPE LOOKOUT NC 0900 81 30/ 5/ 6 1020.7S BUOY 41002 0850 83 84 160/ 8/ 10 1021.0R 3/ 9 2/ 90/ 9 BUOY 41010 0910 83 85 120/ 6/ 8 1019.2 ST AUGUSTINE FL 0900 79 81 170/ 1/ 1 1018.9S $$

USA.gov is the U.S. government's official web portal to all federal, state and local government web resources and services.